Terminal Aerodrome Forecast
Issued by NWS North Platte, NE

Home | Current Version | Previous Version | Text Only | Print | Product List | Glossary Off
Versions: 1 2 3 4 5 6 7 8 9 10 11 12 13 14 15 16 17 18

000
FTUS43 KLBF 252100 AAB
TAFVTN
TAF AMD
KVTN 252158Z 2522/2618 VRB05KT P6SM -RA BKN050 OVC090
     FM260600 02008KT P6SM OVC015
     FM261200 33008KT 5SM BR OVC025
     FM261600 35008KT P6SM OVC025=

USA.gov is the U.S. government's official web portal to all federal, state and local government web resources and services.